GW3558 Weather Reports


Display with metric or nautical units.
time (UTC)temp
F
wind
direction
speed
MPH
gust
MPH
rain 1hr
in
rain 24hr
in
rain mn
in
humidity
%
barometer
mb
20260506135016 55 236 9.0 16.0 0.00 0.00 0.00 44 1018.2
20260506134836 55 246 9.0 16.0 0.00 0.00 0.00 44 1018.2
20260506134014 55 231 10.0 13.0 0.00 0.00 0.00 45 1018.1
20260506133515 55 224 9.0 13.0 0.00 0.00 0.00 45 1018.3
20260506133057 55 258 8.0 13.0 0.00 0.00 0.00 44 1018.3
20260506132519 54 257 8.0 12.0 0.00 0.00 0.00 45 1018.3
20260506132017 54 235 9.0 11.0 0.00 0.00 0.00 46 1018.1
20260506131827 54 235 9.0 13.0 0.00 0.00 0.00 46 1018.1
20260506131021 54 225 9.0 12.0 0.00 0.00 0.00 48 1018.1
20260506130518 53 240 9.0 12.0 0.00 0.00 0.00 48 1018.1
20260506130052 53 237 8.0 11.0 0.00 0.00 0.00 49 1018.1
20260506125527 53 248 7.0 12.0 0.00 0.00 0.00 49 1018.3
20260506125016 53 223 8.0 12.0 0.00 0.00 0.00 49 1018.3
20260506124547 53 242 7.0 11.0 0.00 0.00 0.00 49 1018.1
20260506124013 53 250 7.0 10.0 0.00 0.00 0.00 49 1018.3
20260506123512 53 251 7.0 10.0 0.00 0.00 0.00 49 1018.3
20260506123040 53 246 6.0 10.0 0.00 0.00 0.00 49 1018.3
20260506122514 53 234 6.0 8.0 0.00 0.00 0.00 49 1018.2
20260506122018 53 229 6.0 12.0 0.00 0.00 0.00 49 1018.3
20260506121601 53 246 7.0 12.0 0.00 0.00 0.00 49 1018.3
20260506121017 53 256 5.0 8.0 0.00 0.00 0.00 49 1018.4
20260506120530 53 238 5.0 9.0 0.00 0.00 0.00 49 1018.3
20260506120045 53 241 5.0 9.0 0.00 0.00 0.00 49 1018.2
20260506115516 53 259 5.0 9.0 0.00 0.00 0.00 48 1018.2
20260506115017 54 248 6.0 9.0 0.00 0.00 0.00 48 1018.1
20260506114551 55 258 6.0 11.0 0.00 0.00 0.00 45 1018.2
20260506114015 55 246 6.0 11.0 0.00 0.00 0.00 46 1018.1
20260506113519 54 275 6.0 9.0 0.00 0.00 0.00 47 1018.1
20260506113322 55 252 4.0 8.0 0.00 0.00 0.00 45 1018.2
20260506112521 55 242 6.0 10.0 0.00 0.00 0.00 46 1018.3
20260506112022 55 238 7.0 12.0 0.00 0.00 0.00 46 1018.2
20260506111600 54 232 7.0 12.0 0.00 0.00 0.00 47 1018.1
20260506111021 55 250 7.0 12.0 0.00 0.00 0.00 48 1018.2
20260506110519 55 231 7.0 9.0 0.00 0.00 0.00 48 1018.2
20260506110058 55 240 7.0 14.0 0.00 0.00 0.00 48 1018.3
20260506105519 55 302 7.0 12.0 0.00 0.00 0.00 48 1018.2
20260506105017 55 235 7.0 12.0 0.00 0.00 0.00 48 1018.1
20260506104605 55 221 7.0 17.0 0.00 0.00 0.00 48 1018.0
20260506104016 55 219 8.0 17.0 0.00 0.00 0.00 48 1018.0
20260506103517 55 227 8.0 12.0 0.00 0.00 0.00 49 1018.1
20260506103055 55 236 8.0 12.0 0.00 0.00 0.00 49 1017.9
20260506102518 55 255 7.0 11.0 0.00 0.00 0.00 50 1018.1
20260506102017 55 250 7.0 11.0 0.00 0.00 0.00 50 1018.0
20260506101552 55 238 8.0 11.0 0.00 0.00 0.00 49 1018.1
20260506101015 55 248 7.0 11.0 0.00 0.00 0.00 49 1018.1
20260506100515 55 248 7.0 13.0 0.00 0.00 0.00 48 1018.0
20260506100123 55 236 8.0 16.0 0.00 0.00 0.00 48 1018.0
20260506095519 56 229 7.0 16.0 0.00 0.00 0.00 47 1018.1
20260506095028 56 242 8.0 12.0 0.00 0.00 0.00 46 1018.0
20260506094557 56 248 8.0 15.0 0.00 0.00 0.00 46 1018.2
20260506094022 56 228 7.0 15.0 0.00 0.00 0.00 46 1018.2
20260506093522 55 202 9.0 13.0 0.00 0.00 0.00 48 1018.0
20260506093100 56 225 7.0 13.0 0.00 0.00 0.00 48 1018.1
20260506092520 55 231 8.0 10.0 0.00 0.00 0.00 50 1018.1
20260506092019 55 242 8.0 10.0 0.00 0.00 0.00 50 1018.0
20260506091558 55 221 8.0 10.0 0.00 0.00 0.00 49 1018.0
20260506091016 55 247 6.0 10.0 0.00 0.00 0.00 49 1018.1
20260506090519 55 238 7.0 10.0 0.00 0.00 0.00 48 1018.1
20260506090105 55 225 7.0 10.0 0.00 0.00 0.00 49 1018.2
20260506085520 55 250 6.0 9.0 0.00 0.00 0.00 50 1018.2
20260506085019 56 235 7.0 10.0 0.00 0.00 0.00 50 1018.3
20260506084613 55 238 6.0 10.0 0.00 0.00 0.00 50 1018.2
20260506084019 56 237 6.0 10.0 0.00 0.00 0.00 49 1018.2
20260506083521 57 237 6.0 13.0 0.00 0.00 0.00 48 1018.3
20260506083057 57 227 7.0 13.0 0.00 0.00 0.00 46 1018.3
20260506082519 57 234 7.0 13.0 0.00 0.00 0.00 47 1018.2
20260506082018 57 246 7.0 12.0 0.00 0.00 0.00 47 1018.3
20260506081558 57 248 7.0 12.0 0.00 0.00 0.00 47 1018.3
20260506081019 57 223 8.0 12.0 0.00 0.00 0.00 48 1018.2
20260506080522 57 232 7.0 12.0 0.00 0.00 0.00 50 1018.1
20260506073513 56 261 6.0 9.0 0.00 0.00 0.00 53 1018.1
20260506073042 56 232 6.0 9.0 0.00 0.00 0.00 53 1018.1
20260506072515 56 223 7.0 9.0 0.00 0.00 0.00 53 1018.1
20260506072019 56 242 7.0 8.0 0.00 0.00 0.00 52 1018.1
20260506071556 56 232 6.0 9.0 0.00 0.00 0.00 53 1018.2
20260506071014 56 234 7.0 9.0 0.00 0.00 0.00 52 1018.1
20260506070515 56 200 6.0 10.0 0.00 0.00 0.00 52 1018.1
20260506062020 57 266 7.0 9.0 0.00 0.00 0.00 52 1017.9
20260506061556 57 223 6.0 10.0 0.00 0.00 0.00 53 1018.0
20260506061019 57 232 6.0 10.0 0.00 0.00 0.00 52 1017.9
20260506060517 57 235 6.0 10.0 0.00 0.00 0.00 52 1017.9
20260506051017 58 234 6.0 11.0 0.00 0.00 0.00 49 1017.8
20260506050514 59 236 7.0 11.0 0.00 0.00 0.00 49 1017.8
20260506045017 59 232 6.0 12.0 0.00 0.00 0.00 48 1017.7
20260506044549 59 249 7.0 12.0 0.00 0.00 0.00 47 1017.7
20260506044016 59 248 7.0 10.0 0.00 0.00 0.00 48 1017.7
20260506043516 59 222 6.0 10.0 0.00 0.00 0.00 48 1017.8
20260506043102 59 248 5.0 10.0 0.00 0.00 0.00 48 1017.8
20260506042519 58 236 6.0 9.0 0.00 0.00 0.00 49 1017.7
20260506042015 59 258 4.0 11.0 0.00 0.00 0.00 48 1017.7
20260506041602 59 241 6.0 11.0 0.00 0.00 0.00 47 1017.7
20260506041016 59 236 5.0 9.0 0.00 0.00 0.00 47 1017.6
20260506040520 59 219 6.0 9.0 0.00 0.00 0.00 47 1017.6
20260506040108 59 243 5.0 9.0 0.00 0.00 0.00 48 1017.6
20260506035517 59 233 6.0 9.0 0.00 0.00 0.00 48 1017.4
20260506035016 59 211 6.0 10.0 0.00 0.00 0.00 48 1017.3
20260506034553 60 229 6.0 15.0 0.00 0.00 0.00 46 1017.2
20260506034015 59 221 7.0 15.0 0.00 0.00 0.00 47 1017.1
20260506033517 59 220 5.0 10.0 0.00 0.00 0.00 48 1017.1
20260506033050 59 228 6.0 11.0 0.00 0.00 0.00 49 1017.1
20260506032621 59 248 5.0 11.0 0.00 0.00 0.00 47 1017.1
20260506032017 60 240 8.0 11.0 0.00 0.00 0.00 47 1017.1
20260506032011 59 232 7.0 11.0 0.00 0.00 0.00 47 1017.0
20260506031020 60 237 5.0 9.0 0.00 0.00 0.00 47 1017.0
20260506030524 60 232 5.0 10.0 0.00 0.00 0.00 46 1017.0
20260506025529 61 254 6.0 12.0 0.00 0.00 0.00 44 1017.1
20260506025019 61 261 3.0 8.0 0.00 0.00 0.00 44 1017.0
20260506024553 61 246 3.0 7.0 0.00 0.00 0.00 44 1017.1
20260506024015 62 244 4.0 7.0 0.00 0.00 0.00 43 1017.2
20260506023515 62 254 3.0 8.0 0.00 0.00 0.00 42 1017.1
20260506023047 62 274 3.0 7.0 0.00 0.00 0.00 41 1017.1
20260506022517 63 220 4.0 6.0 0.00 0.00 0.00 41 1017.1
20260506022017 63 240 2.0 6.0 0.00 0.00 0.00 41 1017.1
20260506021547 64 271 3.0 6.0 0.00 0.00 0.00 40 1017.2
20260506021017 64 289 1.0 4.0 0.00 0.00 0.00 40 1017.3
20260506020517 65 269 1.0 4.0 0.00 0.00 0.00 39 1017.2
20260506020313 65 223 1.0 4.0 0.00 0.00 0.00 38 1017.3
20260506015517 66 244 0.0 6.0 0.00 0.00 0.00 37 1017.4
20260506015138 66 209 0.0 3.0 0.00 0.00 0.00 37 1017.4
20260506014558 66 337 1.0 3.0 0.00 0.00 0.00 37 1017.4
20260506014015 66 333 0.0 5.0 0.00 0.00 0.00 37 1017.5
20260506013515 66 332 0.0 5.0 0.00 0.00 0.00 36 1017.5
20260506013311 66 329 1.0 6.0 0.00 0.00 0.00 38 1017.5
20260506012516 66 346 0.0 6.0 0.00 0.00 0.00 36 1017.6
20260506012016 66 9 1.0 3.0 0.00 0.00 0.00 38 1017.4
20260506011551 67 79 1.0 2.0 0.00 0.00 0.00 36 1017.5
20260506011020 67 33 0.0 2.0 0.00 0.00 0.00 39 1017.6
20260506010518 67 94 0.0 2.0 0.00 0.00 0.00 39 1017.6
20260506010105 66 94 0.0 2.0 0.00 0.00 0.00 40 1017.6
20260506005515 66 94 1.0 3.0 0.00 0.00 0.00 40 1017.6
20260506005015 66 355 0.0 4.0 0.00 0.00 0.00 43 1017.6
20260506004553 65 360 1.0 4.0 0.00 0.00 0.00 44 1017.5
20260506004015 65 121 1.0 4.0 0.00 0.00 0.00 43 1017.5
20260506003515 65 121 0.0 5.0 0.00 0.00 0.00 44 1017.6
20260506003049 65 138 1.0 4.0 0.00 0.00 0.00 43 1017.5
20260506002516 65 91 1.0 4.0 0.00 0.00 0.00 43 1017.6
20260506002017 65 92 1.0 3.0 0.00 0.00 0.00 43 1017.7
20260506001602 65 103 1.0 4.0 0.00 0.00 0.00 43 1017.7
20260506001017 66 85 1.0 4.0 0.00 0.00 0.00 43 1017.4
20260506000524 66 98 2.0 6.0 0.00 0.00 0.00 43 1017.6
20260506000059 66 88 1.0 6.0 0.00 0.00 0.00 41 1017.8
20260505235520 67 57 2.0 5.0 0.00 0.00 0.00 40 1017.9
20260505235021 67 105 2.0 6.0 0.00 0.00 0.00 40 1017.9
20260505234554 67 109 1.0 6.0 0.00 0.00 0.00 41 1017.9
20260505234024 67 57 1.0 6.0 0.00 0.00 0.00 39 1017.9
20260505233521 67 92 2.0 6.0 0.00 0.00 0.00 39 1017.9
20260505233133 67 96 2.0 6.0 0.00 0.00 0.00 40 1017.9
20260505232521 68 131 2.0 6.0 0.00 0.00 0.00 40 1017.9
20260505232021 68 94 2.0 8.0 0.00 0.00 0.00 39 1017.9
20260505231559 68 111 2.0 8.0 0.00 0.00 0.00 39 1017.9
20260505231020 68 100 2.0 5.0 0.00 0.00 0.00 39 1017.9
20260505230526 67 98 2.0 7.0 0.00 0.00 0.00 40 1018.1
20260505230124 67 100 3.0 7.0 0.00 0.00 0.00 41 1018.0
20260505225518 67 119 1.0 8.0 0.00 0.00 0.00 41 1018.1
20260505225024 67 85 3.0 7.0 0.00 0.00 0.00 42 1018.1
20260505224549 67 139 2.0 7.0 0.00 0.00 0.00 41 1018.1
20260505224015 67 78 2.0 10.0 0.00 0.00 0.00 40 1018.3
20260505223529 67 113 3.0 10.0 0.00 0.00 0.00 42 1018.2
20260505223044 67 134 2.0 7.0 0.00 0.00 0.00 41 1018.3
20260505222519 67 116 2.0 8.0 0.00 0.00 0.00 41 1018.3
20260505222015 67 123 3.0 8.0 0.00 0.00 0.00 42 1018.4
20260505221533 67 127 3.0 7.0 0.00 0.00 0.00 41 1018.4
20260505221012 67 94 2.0 7.0 0.00 0.00 0.00 41 1018.4
20260505220514 67 89 2.0 7.0 0.00 0.00 0.00 41 1018.4
20260505220041 67 83 3.0 9.0 0.00 0.00 0.00 44 1018.5
20260505215516 67 101 4.0 9.0 0.00 0.00 0.00 41 1018.6
20260505215017 67 98 3.0 12.0 0.00 0.00 0.00 42 1018.5
20260505214536 67 98 3.0 12.0 0.00 0.00 0.00 44 1018.6
20260505214013 66 111 3.0 9.0 0.00 0.00 0.00 43 1018.6
20260505213520 67 98 3.0 9.0 0.00 0.00 0.00 42 1018.6
20260505213043 67 87 3.0 7.0 0.00 0.00 0.00 43 1018.7
20260505212516 67 46 4.0 7.0 0.00 0.00 0.00 43 1018.7
20260505212016 66 46 1.0 6.0 0.00 0.00 0.00 41 1018.8
20260505211541 66 92 2.0 10.0 0.00 0.00 0.00 40 1018.8
20260505211017 66 88 3.0 11.0 0.00 0.00 0.00 42 1018.8
20260505210518 67 83 3.0 6.0 0.00 0.00 0.00 42 1018.9
20260505210042 66 55 2.0 7.0 0.00 0.00 0.00 41 1018.9
20260505205534 66 74 3.0 7.0 0.00 0.00 0.00 43 1019.0
20260505205017 66 105 3.0 7.0 0.00 0.00 0.00 44 1019.0
20260505204555 66 121 3.0 9.0 0.00 0.00 0.00 42 1019.1
20260505204022 66 40 4.0 9.0 0.00 0.00 0.00 41 1019.2
20260505203521 66 269 2.0 8.0 0.00 0.00 0.00 41 1019.2
20260505203058 66 96 4.0 8.0 0.00 0.00 0.00 40 1019.1
20260505202516 66 76 4.0 8.0 0.00 0.00 0.00 41 1019.1
20260505202015 65 347 4.0 9.0 0.00 0.00 0.00 44 1018.9
20260505201537 65 111 3.0 9.0 0.00 0.00 0.00 42 1018.9
20260505201016 66 65 2.0 11.0 0.00 0.00 0.00 42 1018.9
20260505200516 66 72 4.0 11.0 0.00 0.00 0.00 42 1019.1
20260505200044 66 65 4.0 8.0 0.00 0.00 0.00 43 1019.1
20260505195516 65 142 4.0 9.0 0.00 0.00 0.00 44 1019.3
20260505195014 65 107 4.0 9.0 0.00 0.00 0.00 41 1019.2
20260505194552 65 102 3.0 8.0 0.00 0.00 0.00 40 1019.3
20260505194019 65 82 3.0 10.0 0.00 0.00 0.00 40 1019.1
20260505193520 65 121 3.0 7.0 0.00 0.00 0.00 42 1019.1
20260505193110 65 132 4.0 10.0 0.00 0.00 0.00 44 1019.1
20260505192516 65 101 6.0 10.0 0.00 0.00 0.00 43 1018.9
20260505192017 65 53 2.0 9.0 0.00 0.00 0.00 41 1019.1
20260505191559 64 112 4.0 9.0 0.00 0.00 0.00 45 1019.0
20260505191018 65 88 5.0 10.0 0.00 0.00 0.00 40 1019.1
20260505190515 65 137 4.0 10.0 0.00 0.00 0.00 41 1019.0
20260505190053 65 106 3.0 9.0 0.00 0.00 0.00 43 1018.9
20260505185519 65 111 3.0 9.0 0.00 0.00 0.00 43 1019.1
20260505185029 65 104 4.0 9.0 0.00 0.00 0.00 42 1018.9
20260505184535 65 107 4.0 8.0 0.00 0.00 0.00 43 1019.0
20260505184114 65 84 2.0 8.0 0.00 0.00 0.00 43 1019.3
20260505183515 65 98 3.0 8.0 0.00 0.00 0.00 45 1019.3
20260505183054 64 74 3.0 8.0 0.00 0.00 0.00 44 1019.2
20260505182518 64 124 3.0 6.0 0.00 0.00 0.00 46 1019.2
20260505182029 64 73 3.0 10.0 0.00 0.00 0.00 43 1019.1
20260505181552 64 107 5.0 10.0 0.00 0.00 0.00 46 1019.1
20260505181016 63 101 3.0 8.0 0.00 0.00 0.00 46 1019.1
20260505180524 63 84 3.0 8.0 0.00 0.00 0.00 46 1018.9
20260505180053 63 99 3.0 7.0 0.00 0.00 0.00 45 1019.1
20260505175517 63 84 2.0 8.0 0.00 0.00 0.00 46 1018.9
20260505175016 63 84 3.0 8.0 0.00 0.00 0.00 48 1018.9
20260505174543 63 104 2.0 8.0 0.00 0.00 0.00 45 1019.1
20260505174013 63 97 4.0 8.0 0.00 0.00 0.00 46 1019.0
20260505173515 62 105 3.0 8.0 0.00 0.00 0.00 45 1019.1
20260505173046 62 94 4.0 8.0 0.00 0.00 0.00 47 1019.1
20260505172514 62 107 3.0 9.0 0.00 0.00 0.00 46 1018.9
20260505172014 62 155 4.0 9.0 0.00 0.00 0.00 45 1018.8
20260505171550 62 80 3.0 10.0 0.00 0.00 0.00 45 1018.9
20260505171016 62 101 4.0 10.0 0.00 0.00 0.00 46 1018.8
20260505170516 62 105 3.0 7.0 0.00 0.00 0.00 47 1018.9
20260505170042 62 86 2.0 7.0 0.00 0.00 0.00 47 1018.8
20260505165519 62 99 3.0 8.0 0.00 0.00 0.00 51 1018.8
20260505165019 62 133 3.0 8.0 0.00 0.00 0.00 47 1018.8
20260505164549 62 136 3.0 8.0 0.00 0.00 0.00 46 1018.8
20260505164017 61 141 2.0 8.0 0.00 0.00 0.00 48 1018.8
20260505163519 61 142 2.0 9.0 0.00 0.00 0.00 43 1018.8
20260505163058 61 105 3.0 9.0 0.00 0.00 0.00 45 1018.7
20260505162527 61 113 3.0 7.0 0.00 0.00 0.00 45 1018.8
20260505162017 61 137 3.0 7.0 0.00 0.00 0.00 45 1018.8
20260505161547 60 159 2.0 8.0 0.00 0.00 0.00 46 1018.7
20260505161018 61 134 3.0 8.0 0.00 0.00 0.00 47 1018.6
20260505160516 61 146 3.0 7.0 0.00 0.00 0.00 44 1018.6
20260505160415 61 107 3.0 7.0 0.00 0.00 0.00 47 1018.7
20260505153102 60 94 2.0 7.0 0.00 0.00 0.00 52 1018.5
20260505152515 60 74 2.0 6.0 0.00 0.00 0.00 52 1018.6
20260505152024 60 65 2.0 5.0 0.00 0.00 0.00 51 1018.6
20260505151540 59 57 2.0 6.0 0.00 0.00 0.00 52 1018.4
20260505151016 60 65 2.0 6.0 0.00 0.00 0.00 52 1018.4
20260505150515 60 61 1.0 5.0 0.00 0.00 0.00 52 1018.4
20260505140515 59 87 1.0 4.0 0.00 0.00 0.00 50 1018.0
20260505140112 59 94 1.0 3.0 0.00 0.00 0.00 52 1017.9